sat.trackr.live / text

‹ back to catalog

THEOS

NORAD 33396 · 2008-049A

PAYLOAD ACTIVE UNKNOWN

§ Identity

Operator
Country
THAI
Launch date
2008-10-01
Launch site
DLS
Launch vehicle
Mass (kg)
RCS (m²)
2.84

Purposes: earth_obs

External: N2YO · Heavens-Above · Gunter

§ Orbital elements

Epoch: 2026-05-25T03:23:15.468864Z

Period
101.40 min
Inclination
98.5581°
Eccentricity
0.0001297
Mean motion
14.20129640 rev/d
Perigee alt
824.0 km
Apogee alt
825.8 km
Semi-major
7,203.1 km
B*
8.9218e-5
RAAN
203.1716°
Arg perigee
87.2755°
Mean anomaly
272.8570°
Rev number
91,469

§ Raw data

THEOS1 33396U 08049A   26145.14115126  .00000148  00000+0  89218-4 0  99982 33396  98.5581 203.1716 0001297  87.2755 272.8570 14.20129640914694

JSON: /api/v1/satellites/33396 · /tle

For live sub-satellite position, see the globe view (requires WebGL).

§ Visibility from observer

Set your observer location to see the next 7 days of passes ≥ 10°. The values pass through the URL so the page stays shareable.

No JS? Fill the form by hand. The geolocation button needs JavaScript.

§ Radio — SatNOGS DB

ModeDescriptionDownlinkUplink
BPSK S-Band Telemetry 2.211 GHz

1 transmitter · refreshed weekly from db.satnogs.org